星链-37332(STARLINK-37332)

导读

STARLINK-37332(NORAD编号69150)是美国SpaceX公司星链星座中的一颗低轨通信卫星,隶属于全球卫星互联网组网项目。星链计划旨在构建覆盖全球的低时延高速卫星互联网,预计部署超四万颗卫星,该卫星运行在近地轨道,为偏远地区网络覆盖、应急通信等场景提供服务,是SpaceX大规模星座部署中的组成单元,承担天基宽带通信任务,推动全球无缝互联网络的搭建。

基本信息
目录编号:
69150
目录名称:
STARLINK-37332
国际标识:
2026-111C
轨道中心:
EARTH
卫星名称:
星链-37332
卫星全名:
星链-37332(STARLINK-37332)
卫星状态:
在轨 (已飞行107 天)
发射日期:
2026-05-21 UTC
国别 :
美国 (US)
星等 :
--
轨道信息
数据来源 国际轨道数据
星历时间: 2026-09-05T00:00:02+0800
18小时前
查看轨道信息
半长轴: 6840.905km
偏心率: 0.0001033
轨道倾角: 53.156°
近地点辐角 78.363°
升交点赤经 140.059°
平近点角 285.469°
近地点: 462.061km
远地点: 463.475km
周期: 93.849分钟
每日圈数: 15.343784
详细信息
固有亮度:
5
最大亮度:
2.5
卫星平台:
Starlink V1.0
覆盖范围:
全球
运营商:
太空探索技术公司
运营商所在国:
美国
制造商(研发单位):
太空探索技术公司
制造商所在国:
美国
使用方式:
暂无
卫星简介
Starlink 计划是 SpaceX 推出的全球卫星互联网项目,通过发射低轨道卫星,为全球尤其是偏远地区提供高速、低延迟的互联网服务。自 2019 年起,Starlink 已部署数千颗卫星,旨在缩小全球数字鸿沟,推动互联网普及。该项目还为军事、航空等行业提供通信支持,带来广泛经济效益。
2D轨道图
3D轨道图
轨道高度分析图
轨道倾角分析图
轨道综合分析图
查看轨道综合分析图
交会数据列表
事件ID 空间交会对象 最接近时刻(TCA) 交会距离 交会风险概率(CRP) 交会风险指数(CRI) 操作
CDM_260906-165605-114306-915021
2026-09-06T
16:56:01+0000
0.762 km
远距离
4.033454E-5 中风险 0.67
CDM_260906-222405-114306-915021
2026-09-06T
22:24:17+0000
0.764 km
远距离
4.003111E-5 中风险 0.67
CDM_260907-161206-787006-915021
2026-09-07T
16:12:40+0000
0.780 km
远距离
2.939082E-5 中风险 0.64
CDM_260906-073206-121306-915021
2026-09-06T
07:32:54+0000
0.881 km
远距离
2.413451E-5 中风险 0.63
CDM_260906-130106-121306-915021
2026-09-06T
13:01:10+0000
0.891 km
远距离
2.317502E-5 中风险 0.62
CDM_260905-113505-968006-915022
OBJECT D (59680)
2026-09-05T
11:35:22+0000
1.057 km
极远距离
2.233852E-5 中风险 0.62
CDM_260907-133405-354506-915021
2026-09-07T
13:34:06+0000
1.201 km
极远距离
1.25083E-5 中风险 0.57
CDM_260907-103006-170906-915021
2026-09-07T
10:30:46+0000
1.566 km
极远距离
5.023786E-6 低风险 0.49
CDM_260906-235805-175806-915021
2026-09-06T
23:58:14+0000
2.195 km
极远距离
1.488195E-6 低风险 0.38